User: anonymous   Login
Location: Frydek-Mistek
(49.6830°N, 18.3330°E)
Time: 19:04:55
(UTC+02:00)
Language:

Courier 1B Rocket - Orbit

View from above orbital plane
View from above orbital plane
View from above satellite
View from above satellite

Ground track
Ground track

The orbit data is extracted from the following two-line orbital elements,

1    59U 60013B   18115.87928881 +.00000114 +00000-0 +30642-4 0  9996
2    59 028.2490 283.1945 0189225 189.5420 170.1498 13.52959223840406
Epoch (UTC): 25 April 2018 21:06:10
Eccentricity: 0.0189225
inclination: 28.2490°
perigee height: 920 km
apogee height: 1202 km
right ascension of ascending node: 283.1945°
argument of perigee: 189.5420°
revolutions per day: 13.52959223
mean anomaly at epoch: 170.1498°
orbit number at epoch: 84040

The dashed part of the orbit path shows where the satellite is in the earth's shadow,  

DLR